Theta_e
346 345 345 346 346 345 345 343 345 346 338 343 345 346 346 344 347 348 348 350 350 347 346 338 339 348 349 350 350 350 350 349 351 351 344 341 338 341 341 342 340 342 340
345 345 345 346 346 345 345 344 342 345 334 337 338 339 342 345 345 347 348 347 350 348 348 347 338 336 347 348 350 349 348 346 352 350 346 345 341 341 343 342 342 341 339
345 345 345 346 345 345 345 345 344 342 343 341 337 339 347 341 343 346 346 346 350 349 349 348 348 341 337 339 341 342 345 347 349 346 343 345 342 345 344 344 342 341 339
344 344 346 346 346 346 346 346 345 343 342 343 344 336 338 339 341 343 346 349 348 350 349 348 349 349 344 337 338 344 342 346 346 345 342 343 344 346 345 345 344 341 339
344 344 345 345 346 346 346 346 346 345 342 343 342 341 335 336 345 349 351 352 353 350 349 350 349 350 348 347 348 346 345 348 346 345 343 342 343 342 345 345 344 341 340
344 344 344 345 346 346 347 346 346 346 345 341 342 341 339 335 342 348 350 350 351 352 351 351 351 351 352 352 351 351 347 348 348 342 339 339 342 342 342 343 342 340 335
344 344 344 345 345 346 347 347 346 346 345 343 340 341 339 337 337 343 348 349 350 347 351 354 354 354 352 353 353 352 350 349 346 343 335 336 341 339 340 344 343 340 336
346 345 345 345 345 346 346 346 346 346 346 345 342 339 338 338 337 339 341 345 346 348 352 354 354 353 354 354 354 351 350 344 342 343 338 335 339 339 344 345 340 340 336
345 346 346 346 346 346 346 346 346 346 346 346 345 343 338 337 336 336 340 343 347 350 353 354 354 351 350 353 354 354 344 334 335 340 338 335 338 342 345 342 340 337 336
345 346 347 348 347 347 347 347 348 348 348 347 346 345 343 337 335 335 336 339 342 347 351 352 350 348 349 352 355 352 347 338 337 336 334 335 338 343 345 340 338 337 336
345 346 347 348 348 348 348 348 348 349 349 348 347 346 346 347 345 339 334 337 339 339 340 340 341 345 352 357 356 354 349 342 342 340 341 338 343 344 340 338 337 335 334
345 345 346 347 349 350 349 349 349 350 350 348 348 348 347 349 349 347 344 339 339 340 340 341 342 345 350 355 357 353 351 348 348 347 341 342 343 343 339 335 334 334 328
342 344 346 348 348 350 351 350 350 350 349 349 348 348 349 349 349 348 345 342 339 340 342 344 345 347 350 352 355 354 353 352 351 348 341 343 344 341 338 332 324 323 315
340 342 346 347 348 349 350 350 350 349 348 349 349 349 349 347 346 346 343 340 337 339 340 343 348 353 356 357 356 356 355 353 350 344 344 344 342 340 336 325 321 312 306
340 342 347 347 349 350 349 349 349 348 348 348 349 348 345 344 343 344 341 338 338 340 345 351 354 358 358 361 359 360 358 352 346 344 344 344 341 336 325 322 311 307 308
344 346 347 347 349 349 348 348 348 347 346 346 345 341 342 343 344 344 342 343 342 346 353 357 359 360 363 363 363 361 357 350 345 344 344 338 332 323 322 312 308 311 312
348 348 348 348 348 348 348 348 346 345 346 346 345 344 343 343 343 344 345 347 347 352 358 360 361 362 360 359 358 356 351 348 345 343 337 333 328 322 314 309 309 314 314
360 352 349 348 349 349 348 348 347 346 346 346 346 346 345 345 346 348 349 351 353 357 361 363 361 360 358 357 354 353 351 348 344 338 336 334 325 316 308 308 312 315 315
358 357 350 350 350 349 349 348 347 347 346 347 346 346 347 348 349 350 352 355 358 362 364 363 361 359 357 356 354 352 350 345 341 338 336 334 319 309 307 310 314 315 315
348 357 353 351 350 350 350 349 348 347 347 347 347 347 348 350 351 352 354 358 361 365 365 361 359 358 356 355 353 351 348 343 338 337 335 321 312 307 309 314 314 314 314
347 348 357 355 352 351 350 349 348 348 349 349 350 350 351 352 353 355 359 361 362 365 362 359 358 357 355 354 351 349 344 342 339 336 323 316 309 310 313 314 315 314 313
351 347 347 349 350 352 356 354 353 351 351 352 353 354 355 356 359 360 362 361 363 365 359 358 355 357 354 353 347 344 343 336 332 324 320 313 308 310 314 315 315 314 313
353 353 348 350 347 346 345 349 354 355 355 354 354 356 358 360 361 363 362 362 365 363 356 355 354 353 351 347 344 340 333 325 324 322 316 310 308 310 313 314 314 313 312
350 354 354 353 351 349 347 346 343 343 344 344 354 359 360 363 365 364 362 362 363 360 355 353 352 351 348 346 342 340 330 325 324 320 313 310 310 310 311 314 314 313 312
340 338 337 340 342 342 342 343 351 347 343 345 359 363 365 365 365 366 365 364 361 353 356 354 353 351 349 345 342 338 333 326 325 319 315 313 311 310 312 314 314 313 312
341 337 336 338 339 338 338 337 352 354 349 349 361 365 366 366 365 365 365 363 361 357 355 353 350 351 348 345 342 340 330 325 324 318 316 315 314 313 312 313 313 314 313
Wind_Speed
40 37 34 39 35 32 28 26 24 23 28 30 23 29 27 24 19 13 10 8 13 7 6 13 16 13 11 10 9 10 13 13 14 14 14 5 3 6 13 10 12 10 16
40 42 37 42 39 35 31 27 26 24 27 30 23 28 26 24 21 17 11 9 11 10 10 11 9 17 16 13 13 15 16 15 13 13 13 8 7 7 14 11 12 17 18
43 41 43 44 41 38 34 30 27 27 27 26 25 27 25 19 24 21 15 11 12 12 11 11 9 11 14 15 15 16 16 15 14 14 15 11 6 18 9 7 10 17 18
45 46 46 45 44 41 36 32 28 27 27 26 25 28 28 24 22 22 17 15 17 16 13 13 13 13 13 14 14 14 15 16 15 15 17 19 18 17 9 6 11 18 14
49 50 50 49 46 42 40 36 32 29 29 29 28 27 28 26 23 20 17 17 13 14 15 18 15 13 10 10 11 12 13 12 12 14 14 17 16 14 15 17 22 20 8
47 51 53 51 49 45 42 40 37 32 30 31 32 30 28 28 26 24 22 20 16 16 19 19 17 17 18 16 14 13 12 11 9 11 11 16 12 14 16 17 19 15 10
44 46 49 53 52 50 47 44 41 38 33 31 33 33 30 29 28 26 25 23 23 23 19 16 16 17 17 18 17 14 13 13 12 15 11 18 12 14 17 15 13 10 7
43 45 53 56 56 53 50 47 45 41 37 32 32 33 33 31 29 27 26 26 27 25 21 18 19 19 15 16 16 15 13 17 18 18 11 18 11 16 14 11 10 3 3
44 48 51 55 56 55 53 49 45 42 39 34 31 31 34 33 32 29 26 26 27 26 24 22 23 22 20 17 12 10 8 25 26 22 15 14 18 17 9 7 3 1 3
46 46 48 55 56 56 52 50 45 40 36 35 33 28 29 33 32 32 31 28 26 27 27 27 28 28 25 21 15 12 16 27 27 33 36 24 22 12 8 6 3 3 3
45 48 49 53 55 55 53 51 49 43 38 33 32 30 26 27 29 32 32 32 30 29 28 27 27 25 22 19 18 19 19 29 33 22 14 13 10 8 1 4 5 6 5
47 44 48 53 52 53 51 49 48 45 39 29 31 31 27 26 25 27 28 29 30 28 27 26 26 24 24 24 25 22 25 23 24 22 18 5 7 4 1 4 6 9 11
30 33 43 47 52 52 51 48 46 43 37 33 32 30 28 28 28 27 25 26 26 26 25 25 24 24 23 23 23 19 19 19 16 8 13 7 5 1 1 5 8 10 10
26 26 38 45 49 51 49 47 44 41 35 34 34 33 31 29 28 26 25 24 22 21 20 19 19 18 16 16 15 14 11 15 2 5 4 0 1 1 3 7 9 8 6
34 33 42 46 46 48 45 44 41 35 32 33 32 31 28 26 24 23 22 21 19 18 18 18 17 12 10 14 11 9 10 7 3 6 4 6 2 2 4 8 7 8 10
29 38 44 46 48 46 43 40 37 32 27 28 27 24 25 25 24 21 19 18 17 17 17 15 11 7 10 9 9 7 4 3 7 6 9 4 4 3 5 6 10 13 13
10 33 46 50 47 45 41 39 33 28 28 26 24 24 22 21 21 20 19 18 16 15 14 10 8 10 8 7 6 3 2 6 7 7 6 6 4 4 6 9 10 11 12
5 21 39 45 43 40 39 35 30 31 30 26 26 23 21 21 20 19 18 16 16 15 10 10 11 9 7 7 6 4 6 8 10 7 4 1 3 3 7 9 10 9 11
2 18 32 41 38 36 34 35 32 30 30 28 25 24 23 22 20 21 18 16 15 13 12 13 11 9 8 8 5 6 7 10 9 7 4 1 2 5 8 10 11 9 8
20 11 21 31 26 27 29 32 32 29 30 29 26 23 23 23 23 22 20 16 16 15 14 13 11 9 10 8 6 7 13 13 11 10 6 5 5 9 12 12 10 8 9
19 19 16 17 21 26 29 31 30 31 26 25 26 27 27 27 25 23 21 18 19 17 16 15 13 12 10 11 8 10 13 6 9 9 9 7 10 13 13 10 8 9 11
12 19 22 20 17 14 23 25 26 22 23 26 28 29 29 28 25 25 22 21 21 19 20 17 17 16 14 12 15 14 7 7 6 10 9 9 12 12 12 9 11 10 12
10 9 15 16 18 16 16 17 19 22 21 24 27 28 28 27 26 25 25 25 23 24 24 22 22 21 18 20 16 14 11 10 11 11 10 11 12 11 13 12 12 10 11
8 6 8 9 12 12 12 10 11 15 17 19 23 26 28 28 27 26 27 27 27 29 29 27 26 25 26 25 22 18 15 14 12 11 12 13 13 13 14 14 9 11 11
4 3 4 5 6 9 9 7 9 12 13 14 19 25 28 28 29 29 28 27 28 28 30 31 29 29 28 25 19 16 14 12 10 12 14 15 14 15 15 14 13 12 13
6 2 5 7 7 9 10 11 10 14 14 16 23 28 31 31 29 29 29 28 27 26 20 20 21 24 20 20 19 15 12 12 12 13 15 16 14 14 14 13 14 13 11
Wind_Direction
202 204 202 200 202 205 207 212 211 212 208 207 204 200 206 205 211 217 233 216 223 270 328 237 247 255 262 262 277 294 300 316 329 333 337 319 271 254 347 360 331 316 329
203 205 204 200 204 208 210 215 216 210 206 211 209 203 205 212 209 217 227 236 233 278 310 319 284 250 262 272 281 291 297 311 316 324 335 335 324 284 326 288 327 331 331
203 204 202 203 204 208 212 219 221 216 213 212 210 210 212 214 212 214 219 237 247 268 292 311 312 286 270 276 280 288 291 296 309 321 334 328 293 314 329 312 326 336 335
205 207 205 205 207 212 216 223 226 226 223 218 215 214 213 211 198 199 220 250 260 255 277 297 309 311 304 298 299 294 290 297 311 326 335 336 324 318 314 309 334 341 341
204 207 208 211 212 215 216 220 227 230 230 225 222 222 222 222 218 223 233 244 251 246 269 279 303 310 315 312 317 309 300 296 314 332 339 339 338 345 329 326 337 354 29
206 210 211 213 213 215 218 220 223 229 233 230 229 228 229 228 226 228 232 239 246 251 261 274 285 301 301 303 312 314 312 317 330 336 344 345 345 341 335 330 338 2 32
206 206 206 209 213 214 217 220 222 226 231 232 232 233 234 232 232 233 235 237 242 248 255 263 282 290 305 302 297 311 325 324 319 321 324 350 346 339 333 336 344 358 56
208 206 211 211 215 215 217 220 222 225 230 233 236 236 236 237 236 238 237 240 243 246 261 267 272 279 300 313 291 304 333 343 321 311 328 340 340 339 333 330 335 3 76
207 208 210 211 215 216 218 221 224 227 231 235 238 239 239 239 239 240 242 242 241 246 254 262 270 279 291 300 284 294 317 299 296 304 319 331 339 337 336 336 357 4 17
205 206 207 210 213 220 221 222 226 229 232 234 237 241 240 241 243 245 246 247 249 253 258 261 269 278 285 287 282 256 254 290 301 291 293 307 329 330 338 354 355 354 11
204 203 207 211 217 219 220 223 224 226 228 233 236 239 239 239 242 247 250 253 257 260 264 268 274 275 282 294 283 259 255 275 285 277 338 352 319 343 346 0 357 356 356
200 202 205 210 209 213 218 222 226 226 228 231 236 238 241 244 246 248 250 253 258 262 267 271 273 280 287 290 285 277 275 281 282 281 266 317 304 322 11 352 353 341 335
195 202 202 204 210 212 213 221 225 229 230 231 234 237 240 245 249 251 254 255 255 260 266 271 275 281 285 284 281 284 292 298 294 289 255 263 309 280 30 347 344 339 337
242 216 205 206 210 213 213 219 224 227 231 232 234 239 243 245 248 252 254 258 260 262 266 273 281 286 294 290 289 294 298 303 288 149 173 250 120 91 344 348 346 1 30
237 225 209 204 207 209 212 217 221 224 228 230 234 238 241 243 245 248 252 255 259 264 272 280 287 296 294 283 285 277 289 322 143 127 125 129 192 23 9 351 24 63 78
222 213 206 201 205 208 211 215 215 217 219 224 228 228 234 239 245 250 253 258 262 268 276 281 297 306 275 273 277 280 282 354 130 130 142 150 97 46 2 31 71 85 74
207 204 202 203 206 209 211 210 209 213 218 224 225 229 234 239 243 247 251 256 262 270 276 284 275 263 262 266 272 263 178 143 125 129 138 118 57 20 24 69 92 91 74
318 208 211 200 205 206 207 207 206 214 219 225 230 231 232 235 240 244 250 257 262 265 268 252 247 241 238 246 248 202 187 151 134 136 132 84 42 37 61 83 108 89 70
217 223 203 198 201 203 204 208 211 215 221 227 231 232 234 238 242 244 246 253 254 245 233 234 231 221 214 206 204 187 183 154 156 174 166 101 56 74 85 105 103 90 61
96 134 188 195 196 200 205 209 215 218 226 231 234 238 241 245 247 246 244 246 241 230 217 220 213 212 195 187 177 187 166 163 169 174 166 145 108 96 112 117 107 97 79
103 113 152 174 196 207 211 216 220 225 234 241 244 246 246 247 248 243 236 234 228 220 202 203 201 195 196 173 170 165 162 171 173 165 152 134 113 117 124 124 116 85 79
121 121 134 143 155 182 211 217 223 235 241 244 244 244 244 243 236 229 229 227 221 210 194 197 182 180 178 173 158 159 167 163 173 152 143 128 124 131 128 116 103 92 75
149 138 144 148 162 171 182 209 223 233 237 241 243 245 244 239 232 225 225 218 212 203 192 185 179 180 172 162 165 163 152 145 153 143 134 131 131 138 137 121 113 94 77
150 165 169 181 184 194 205 217 228 233 241 243 238 237 237 230 224 222 224 218 205 198 188 183 185 186 172 173 172 168 163 156 158 143 133 131 132 133 136 145 134 104 83
111 157 188 210 213 226 239 225 238 252 261 249 234 230 227 225 221 216 215 217 212 213 191 188 191 186 185 188 182 176 169 163 162 152 142 137 132 136 142 135 129 116 97
14 325 271 257 249 246 242 247 248 258 262 249 230 224 220 220 220 216 207 206 210 201 204 200 199 189 193 183 176 174 175 175 174 162 153 147 137 127 133 144 142 135 123